TimeCDT,TemperatureF,Dew PointF,Humidity,Sea Level PressureIn,VisibilityMPH,Wind Direction,Wind SpeedMPH,Gust SpeedMPH,PrecipitationIn,Events,Conditions,WindDirDegrees,DateUTC
12:53 AM,79.0,73.0,82,30.05,10.0,NE,6.9,-,N/A,,Clear,40,2013-08-11 05:53:00
1:53 AM,78.1,73.0,84,30.04,10.0,ENE,4.6,-,N/A,,Clear,60,2013-08-11 06:53:00
2:53 AM,77.0,73.0,88,30.05,10.0,ENE,3.5,-,N/A,,Clear,60,2013-08-11 07:53:00
3:53 AM,77.0,73.0,88,30.05,10.0,Calm,Calm,-,N/A,,Clear,0,2013-08-11 08:53:00
4:53 AM,75.9,73.0,91,30.06,10.0,Calm,Calm,-,N/A,,Mostly Cloudy,0,2013-08-11 09:53:00
5:53 AM,75.0,73.0,94,30.06,10.0,Calm,Calm,-,N/A,,Clear,0,2013-08-11 10:53:00
6:53 AM,75.0,73.0,94,30.06,10.0,Calm,Calm,-,N/A,,Clear,0,2013-08-11 11:53:00
7:53 AM,78.1,75.0,90,30.07,10.0,Calm,Calm,-,N/A,,Clear,0,2013-08-11 12:53:00
8:53 AM,82.0,73.9,76,30.07,10.0,SW,6.9,-,N/A,,Clear,220,2013-08-11 13:53:00
9:53 AM,86.0,73.9,67,30.09,10.0,SW,5.8,-,N/A,,Clear,230,2013-08-11 14:53:00
10:53 AM,90.0,70.0,52,30.09,10.0,WSW,8.1,-,N/A,,Clear,240,2013-08-11 15:53:00
11:53 AM,91.9,69.1,47,30.08,10.0,South,4.6,-,N/A,,Clear,190,2013-08-11 16:53:00
12:53 PM,93.9,70.0,46,30.06,10.0,WSW,10.4,-,N/A,,Clear,240,2013-08-11 17:53:00
1:53 PM,95.0,70.0,44,30.05,10.0,Variable,6.9,-,N/A,,Scattered Clouds,0,2013-08-11 18:53:00
2:53 PM,96.1,70.0,43,30.02,10.0,SSW,8.1,-,N/A,,Clear,200,2013-08-11 19:53:00
3:53 PM,96.1,69.1,41,30.00,10.0,South,6.9,-,N/A,,Scattered Clouds,170,2013-08-11 20:53:00
4:53 PM,96.1,69.1,41,29.99,10.0,South,4.6,-,N/A,,Clear,180,2013-08-11 21:53:00
5:53 PM,96.1,69.1,41,29.99,10.0,South,10.4,-,N/A,,Clear,170,2013-08-11 22:53:00
6:53 PM,91.0,72.0,53,30.01,10.0,SSE,13.8,17.3,N/A,,Scattered Clouds,160,2013-08-11 23:53:00
7:53 PM,86.0,70.0,59,30.02,10.0,SW,4.6,-,N/A,,Mostly Cloudy,220,2013-08-12 00:53:00
8:53 PM,84.0,71.1,65,30.02,10.0,WSW,3.5,-,N/A,,Scattered Clouds,250,2013-08-12 01:53:00
9:53 PM,82.9,71.1,67,30.04,10.0,SE,3.5,-,N/A,,Clear,140,2013-08-12 02:53:00
10:53 PM,80.1,72.0,76,30.03,10.0,South,3.5,-,N/A,,Partly Cloudy,180,2013-08-12 03:53:00
11:53 PM,77.0,73.0,88,30.03,10.0,Calm,Calm,-,N/A,,Clear,0,2013-08-12 04:53:00